Location: Oberwangen
(47.4286°N, 8.9679°E)
Time: 07:09:59
(UTC+00:00)

Cosmos 2219 Rocket - Pass Details

Date: 20 June 2021
Orbit: 829 x 846 km, 71.0° (Epoch: 28 July)

Event Time Altitude Azimuth Distance (km) Brightness Sun altitude
Rises 21:58:37 0° 227° (SW) 3,396 5.1 -16.5°
Reaches altitude 10° 22:01:11 10° 234° (SW) 2,465 4.5 -16.6°
Maximum altitude 22:06:33 43° 306° (NW) 1,180 3.4 -16.9°
Drops below altitude 10° 22:11:56 10° 17° (NNE) 2,474 5.4 -17.2°
Sets 22:14:32 0° 24° (NNE) 3,410 6.1 -17.3°
